Tracking 19709 objects as of 20-Jun-2019
HD Live streaming from Space Station
objects crossing your sky now

FENGYUN 1C DEB

Track FENGYUN 1C DEB now!
10-day predictions


NORAD ID: 31714
Int'l Code: 1999-025CDM
Perigee: 783.3 km
Apogee: 864.3 km
Inclination: 99.0 °
Period: 101.2 minutes
Semi major axis: 7194 km
RCS: 0.0102 m2 (small)
Launch date: May 10, 1999
Source: People's Republic of China (PRC)
Launch site: Taiyaun Space Center, China (TSC)

Note: This is SATELLITE DEBRIS
aabbcc
Your satellite tracking list
Your tracking list is empty




NASA's NSSDC Master Catalog

Two Line Element Set (TLE):
1 31714U 99025CDM 19170.84985028  .00000769  00000-0  35938-3 0  9996
2 31714  99.0422 280.1423 0056277  35.1496  90.8494 14.22564077621202
Source of the keplerian elements: AFSPC